Year,Month,Day,Hour,Minute,Value (Times are PST for temperature in C)
2007,07,16,00,00,18.50
2007,07,16,00,01,18.50
2007,07,16,00,02,18.50
2007,07,16,00,03,18.50
2007,07,16,00,04,18.50
2007,07,16,00,05,18.50
2007,07,16,00,06,18.50
2007,07,16,00,07,18.50
2007,07,16,00,08,18.50
2007,07,16,00,09,18.50
2007,07,16,00,10,18.50
2007,07,16,00,11,18.50
2007,07,16,00,12,18.50
2007,07,16,00,13,18.50
2007,07,16,00,14,18.50
2007,07,16,00,15,18.50
2007,07,16,00,16,18.40
2007,07,16,00,17,18.40
2007,07,16,00,18,18.40
2007,07,16,00,19,18.40
2007,07,16,00,20,18.40
2007,07,16,00,21,18.30
2007,07,16,00,22,18.30
2007,07,16,00,23,18.30
2007,07,16,00,24,18.30
2007,07,16,00,25,18.30
2007,07,16,00,26,18.20
2007,07,16,00,27,18.20
2007,07,16,00,28,18.20
2007,07,16,00,29,18.20
2007,07,16,00,30,18.20
2007,07,16,00,31,18.20
2007,07,16,00,32,18.10
2007,07,16,00,33,18.10
2007,07,16,00,34,18.20
2007,07,16,00,35,18.20
2007,07,16,00,36,18.20
2007,07,16,00,37,18.20
2007,07,16,00,38,18.20
2007,07,16,00,39,18.20
2007,07,16,00,40,18.20
2007,07,16,00,41,18.20
2007,07,16,00,42,18.20
2007,07,16,00,43,18.20
2007,07,16,00,44,18.20
2007,07,16,00,45,18.20
2007,07,16,00,46,18.20
2007,07,16,00,47,18.20
2007,07,16,00,48,18.20
2007,07,16,00,49,18.20
2007,07,16,00,50,18.20
2007,07,16,00,51,18.20
2007,07,16,00,52,18.20
2007,07,16,00,53,18.20
2007,07,16,00,54,18.20
2007,07,16,00,55,18.20
2007,07,16,00,56,18.20
2007,07,16,00,57,18.20
2007,07,16,00,58,18.20
2007,07,16,00,59,18.20
2007,07,16,01,00,18.20
2007,07,16,01,01,18.20
2007,07,16,01,02,18.20
2007,07,16,01,03,18.10
2007,07,16,01,04,18.10
2007,07,16,01,05,18.10
2007,07,16,01,06,18.10
2007,07,16,01,07,18.10
2007,07,16,01,08,18.00
2007,07,16,01,09,18.00
2007,07,16,01,10,18.00
2007,07,16,01,11,18.00
2007,07,16,01,12,17.90
2007,07,16,01,13,17.90
2007,07,16,01,14,17.90
2007,07,16,01,15,17.90
2007,07,16,01,16,17.80
2007,07,16,01,17,17.80
2007,07,16,01,18,17.80
2007,07,16,01,19,17.70
2007,07,16,01,20,17.70
2007,07,16,01,21,17.70
2007,07,16,01,22,17.60
2007,07,16,01,23,17.60
2007,07,16,01,24,17.60
2007,07,16,01,25,17.50
2007,07,16,01,26,17.50
2007,07,16,01,27,17.40
2007,07,16,01,28,17.40
2007,07,16,01,29,17.40
2007,07,16,01,30,17.30
2007,07,16,01,31,17.30
2007,07,16,01,32,17.30
2007,07,16,01,33,17.20
2007,07,16,01,34,17.20
2007,07,16,01,35,17.20
2007,07,16,01,36,17.20
2007,07,16,01,37,17.20
2007,07,16,01,38,17.10
2007,07,16,01,39,17.10
2007,07,16,01,40,17.10
2007,07,16,01,41,17.00
2007,07,16,01,42,17.00
2007,07,16,01,43,17.00
2007,07,16,01,44,16.90
2007,07,16,01,45,16.90
2007,07,16,01,46,16.90
2007,07,16,01,47,16.80
2007,07,16,01,48,16.80
2007,07,16,01,49,16.80
2007,07,16,01,50,16.80
2007,07,16,01,51,16.80
2007,07,16,01,52,16.80
2007,07,16,01,53,16.70
2007,07,16,01,54,16.70
2007,07,16,01,55,16.70
2007,07,16,01,56,16.70
2007,07,16,01,57,16.70
2007,07,16,01,58,16.70
2007,07,16,01,59,16.70
2007,07,16,02,00,16.70
2007,07,16,02,01,16.60
2007,07,16,02,02,16.60
2007,07,16,02,03,16.60
2007,07,16,02,04,16.50
2007,07,16,02,05,16.50
2007,07,16,02,06,16.50
2007,07,16,02,07,16.40
2007,07,16,02,08,16.40
2007,07,16,02,09,16.40
2007,07,16,02,10,16.30
2007,07,16,02,11,16.30
2007,07,16,02,12,16.20
2007,07,16,02,13,16.20
2007,07,16,02,14,16.20
2007,07,16,02,15,16.20
2007,07,16,02,16,16.10
2007,07,16,02,17,16.10
2007,07,16,02,18,16.10
2007,07,16,02,19,16.10
2007,07,16,02,20,16.10
2007,07,16,02,21,16.10
2007,07,16,02,22,16.10
2007,07,16,02,23,16.10
2007,07,16,02,24,16.10
2007,07,16,02,25,16.10
2007,07,16,02,26,16.10
2007,07,16,02,27,16.10
2007,07,16,02,28,16.10
2007,07,16,02,29,16.10
2007,07,16,02,30,16.10
2007,07,16,02,31,16.00
2007,07,16,02,32,16.00
2007,07,16,02,33,16.00
2007,07,16,02,34,15.90
2007,07,16,02,35,15.90
2007,07,16,02,36,15.90
2007,07,16,02,37,15.90
2007,07,16,02,38,15.90
2007,07,16,02,39,15.90
2007,07,16,02,40,15.80
2007,07,16,02,41,15.80
2007,07,16,02,42,15.80
2007,07,16,02,43,15.80
2007,07,16,02,44,15.80
2007,07,16,02,45,15.80
2007,07,16,02,46,15.70
2007,07,16,02,47,15.70
2007,07,16,02,48,15.70
2007,07,16,02,49,15.70
2007,07,16,02,50,15.60
2007,07,16,02,51,15.60
2007,07,16,02,52,15.60
2007,07,16,02,53,15.50
2007,07,16,02,54,15.50
2007,07,16,02,55,15.50
2007,07,16,02,56,15.40
2007,07,16,02,57,15.40
2007,07,16,02,58,15.40
2007,07,16,02,59,15.40
2007,07,16,03,00,15.40
2007,07,16,03,01,15.30
2007,07,16,03,02,15.30
2007,07,16,03,03,15.30
2007,07,16,03,04,15.30
2007,07,16,03,05,15.20
2007,07,16,03,06,15.20
2007,07,16,03,07,15.10
2007,07,16,03,08,15.00
2007,07,16,03,09,15.00
2007,07,16,03,10,15.00
2007,07,16,03,11,15.00
2007,07,16,03,12,15.00
2007,07,16,03,13,15.00
2007,07,16,03,14,14.90
2007,07,16,03,15,14.80
2007,07,16,03,16,14.80
2007,07,16,03,17,14.80
2007,07,16,03,18,14.80
2007,07,16,03,19,14.70
2007,07,16,03,20,14.70
2007,07,16,03,21,14.70
2007,07,16,03,22,14.60
2007,07,16,03,23,14.60
2007,07,16,03,24,14.60
2007,07,16,03,25,14.60
2007,07,16,03,26,14.50
2007,07,16,03,27,14.50
2007,07,16,03,28,14.50
2007,07,16,03,29,14.40
2007,07,16,03,30,14.40
2007,07,16,03,31,14.40
2007,07,16,03,32,14.30
2007,07,16,03,33,14.30
2007,07,16,03,34,14.30
2007,07,16,03,35,14.30
2007,07,16,03,36,14.30
2007,07,16,03,37,14.30
2007,07,16,03,38,14.30
2007,07,16,03,39,14.20
2007,07,16,03,40,14.20
2007,07,16,03,41,14.20
2007,07,16,03,42,14.20
2007,07,16,03,43,14.20
2007,07,16,03,44,14.20
2007,07,16,03,45,14.20
2007,07,16,03,46,14.20
2007,07,16,03,47,14.20
2007,07,16,03,48,14.20
2007,07,16,03,49,14.20
2007,07,16,03,50,14.20
2007,07,16,03,51,14.20
2007,07,16,03,52,14.20
2007,07,16,03,53,14.10
2007,07,16,03,54,14.10
2007,07,16,03,55,14.10
2007,07,16,03,56,14.10
2007,07,16,03,57,14.10
2007,07,16,03,58,14.10
2007,07,16,03,59,14.10
2007,07,16,04,00,14.10
2007,07,16,04,01,14.10
2007,07,16,04,02,14.20
2007,07,16,04,03,14.20
2007,07,16,04,04,14.20
2007,07,16,04,05,14.20
2007,07,16,04,06,14.20
2007,07,16,04,07,14.30
2007,07,16,04,08,14.30
2007,07,16,04,09,14.30
2007,07,16,04,10,14.40
2007,07,16,04,11,14.40
2007,07,16,04,12,14.50
2007,07,16,04,13,14.50
2007,07,16,04,14,14.60
2007,07,16,04,15,14.60
2007,07,16,04,16,14.60
2007,07,16,04,17,14.60
2007,07,16,04,18,14.50
2007,07,16,04,19,14.50
2007,07,16,04,20,14.50
2007,07,16,04,21,14.50
2007,07,16,04,22,14.50
2007,07,16,04,23,14.50
2007,07,16,04,24,14.50
2007,07,16,04,25,14.50
2007,07,16,04,26,14.50
2007,07,16,04,27,14.50
2007,07,16,04,28,14.60
2007,07,16,04,29,14.60
2007,07,16,04,30,14.60
2007,07,16,04,31,14.60
2007,07,16,04,32,14.60
2007,07,16,04,33,14.60
2007,07,16,04,34,14.60
2007,07,16,04,35,14.60
2007,07,16,04,36,14.60
2007,07,16,04,37,14.60
2007,07,16,04,38,14.60
2007,07,16,04,39,14.60
2007,07,16,04,40,14.60
2007,07,16,04,41,14.60
2007,07,16,04,42,14.60
2007,07,16,04,43,14.70
2007,07,16,04,44,14.70
2007,07,16,04,45,14.70
2007,07,16,04,46,14.70
2007,07,16,04,47,14.70
2007,07,16,04,48,14.70
2007,07,16,04,49,14.70
2007,07,16,04,50,14.70
2007,07,16,04,51,14.70
2007,07,16,04,52,14.70
2007,07,16,04,53,14.70
2007,07,16,04,54,14.70
2007,07,16,04,55,14.70
2007,07,16,04,56,14.70
2007,07,16,04,57,14.70
2007,07,16,04,58,14.70
2007,07,16,04,59,14.70
2007,07,16,05,00,14.70
2007,07,16,05,01,14.80
2007,07,16,05,02,14.70
2007,07,16,05,03,14.80
2007,07,16,05,04,14.80
2007,07,16,05,05,14.80
2007,07,16,05,06,14.80
2007,07,16,05,07,14.80
2007,07,16,05,08,14.80
2007,07,16,05,09,14.80
2007,07,16,05,10,14.80
2007,07,16,05,11,14.80
2007,07,16,05,12,14.80
2007,07,16,05,13,14.80
2007,07,16,05,14,14.80
2007,07,16,05,15,14.80
2007,07,16,05,16,14.90
2007,07,16,05,17,14.90
2007,07,16,05,18,14.90
2007,07,16,05,19,14.90
2007,07,16,05,20,15.00
2007,07,16,05,21,15.00
2007,07,16,05,22,15.00
2007,07,16,05,23,15.00
2007,07,16,05,24,15.00
2007,07,16,05,25,15.00
2007,07,16,05,26,15.00
2007,07,16,05,27,15.00
2007,07,16,05,28,15.00
2007,07,16,05,29,15.00
2007,07,16,05,30,15.00
2007,07,16,05,31,15.00
2007,07,16,05,32,15.00
2007,07,16,05,33,15.00
2007,07,16,05,34,15.00
2007,07,16,05,35,15.00
2007,07,16,05,36,15.00
2007,07,16,05,37,15.10
2007,07,16,05,38,15.10
2007,07,16,05,39,15.10
2007,07,16,05,40,15.10
2007,07,16,05,41,15.10
2007,07,16,05,42,15.10
2007,07,16,05,43,15.10
2007,07,16,05,44,15.10
2007,07,16,05,45,15.20
2007,07,16,05,46,15.20
2007,07,16,05,47,15.20
2007,07,16,05,48,15.20
2007,07,16,05,49,15.20
2007,07,16,05,50,15.20
2007,07,16,05,51,15.20
2007,07,16,05,52,15.20
2007,07,16,05,53,15.20
2007,07,16,05,54,15.20
2007,07,16,05,55,15.20
2007,07,16,05,56,15.20
2007,07,16,05,57,15.10
2007,07,16,05,58,15.10
2007,07,16,05,59,15.10
2007,07,16,06,00,15.20
2007,07,16,06,01,15.20
2007,07,16,06,02,15.20
2007,07,16,06,03,15.20
2007,07,16,06,04,15.20
2007,07,16,06,05,15.20
2007,07,16,06,06,15.30
2007,07,16,06,07,15.30
2007,07,16,06,08,15.30
2007,07,16,06,09,15.30
2007,07,16,06,10,15.30
2007,07,16,06,11,15.30
2007,07,16,06,12,15.30
2007,07,16,06,13,15.30
2007,07,16,06,14,15.30
2007,07,16,06,15,15.30
2007,07,16,06,16,15.30
2007,07,16,06,17,15.30
2007,07,16,06,18,15.30
2007,07,16,06,19,15.40
2007,07,16,06,20,15.40
2007,07,16,06,21,15.40
2007,07,16,06,22,15.40
2007,07,16,06,23,15.40
2007,07,16,06,24,15.40
2007,07,16,06,25,15.40
2007,07,16,06,26,15.40
2007,07,16,06,27,15.40
2007,07,16,06,28,15.50
2007,07,16,06,29,15.50
2007,07,16,06,30,15.50
2007,07,16,06,31,15.50
2007,07,16,06,32,15.60
2007,07,16,06,33,15.60
2007,07,16,06,34,15.60
2007,07,16,06,35,15.60
2007,07,16,06,36,15.60
2007,07,16,06,37,15.70
2007,07,16,06,38,15.70
2007,07,16,06,39,15.70
2007,07,16,06,40,15.70
2007,07,16,06,41,15.80
2007,07,16,06,42,15.80
2007,07,16,06,43,15.80
2007,07,16,06,44,15.80
2007,07,16,06,45,15.80
2007,07,16,06,46,15.80
2007,07,16,06,47,15.80
2007,07,16,06,48,15.80
2007,07,16,06,49,15.90
2007,07,16,06,50,15.90
2007,07,16,06,51,15.90
2007,07,16,06,52,15.90
2007,07,16,06,53,15.90
2007,07,16,06,54,15.90
2007,07,16,06,55,15.90
2007,07,16,06,56,16.00
2007,07,16,06,57,16.00
2007,07,16,06,58,16.00
2007,07,16,06,59,16.00
2007,07,16,07,00,16.00
2007,07,16,07,01,16.00
2007,07,16,07,02,16.10
2007,07,16,07,03,16.10
2007,07,16,07,04,16.10
2007,07,16,07,05,16.10
2007,07,16,07,06,16.10
2007,07,16,07,07,16.10
2007,07,16,07,08,16.20
2007,07,16,07,09,16.20
2007,07,16,07,10,16.20
2007,07,16,07,11,16.20
2007,07,16,07,12,16.30
2007,07,16,07,13,16.30
2007,07,16,07,14,16.30
2007,07,16,07,15,16.40
2007,07,16,07,16,16.40
2007,07,16,07,17,16.40
2007,07,16,07,18,16.40
2007,07,16,07,19,16.50
2007,07,16,07,20,16.50
2007,07,16,07,21,16.60
2007,07,16,07,22,16.60
2007,07,16,07,23,16.60
2007,07,16,07,24,16.60
2007,07,16,07,25,16.70
2007,07,16,07,26,16.70
2007,07,16,07,27,16.70
2007,07,16,07,28,16.70
2007,07,16,07,29,16.70
2007,07,16,07,30,16.70
2007,07,16,07,31,16.80
2007,07,16,07,32,16.80
2007,07,16,07,33,16.80
2007,07,16,07,34,16.80
2007,07,16,07,35,16.90
2007,07,16,07,36,16.90
2007,07,16,07,37,16.90
2007,07,16,07,38,16.90
2007,07,16,07,39,16.90
2007,07,16,07,40,16.90
2007,07,16,07,41,16.90
2007,07,16,07,42,16.90
2007,07,16,07,43,16.90
2007,07,16,07,44,17.00
2007,07,16,07,45,17.00
2007,07,16,07,46,17.00
2007,07,16,07,47,17.10
2007,07,16,07,48,17.10
2007,07,16,07,49,17.10
2007,07,16,07,50,17.10
2007,07,16,07,51,17.10
2007,07,16,07,52,17.10
2007,07,16,07,53,17.10
2007,07,16,07,54,17.10
2007,07,16,07,55,17.10
2007,07,16,07,56,17.10
2007,07,16,07,57,17.10
2007,07,16,07,58,17.20
2007,07,16,07,59,17.20
2007,07,16,08,00,17.20
2007,07,16,08,01,17.30
2007,07,16,08,02,17.30
2007,07,16,08,03,17.30
2007,07,16,08,04,17.40
2007,07,16,08,05,17.40
2007,07,16,08,06,17.40
2007,07,16,08,07,17.40
2007,07,16,08,08,17.40
2007,07,16,08,09,17.40
2007,07,16,08,10,17.40
2007,07,16,08,11,17.40
2007,07,16,08,12,17.40
2007,07,16,08,13,17.40
2007,07,16,08,14,17.50
2007,07,16,08,15,17.50
2007,07,16,08,16,17.50
2007,07,16,08,17,17.60
2007,07,16,08,18,17.60
2007,07,16,08,19,17.60
2007,07,16,08,20,17.70
2007,07,16,08,21,17.70
2007,07,16,08,22,17.80
2007,07,16,08,23,17.80
2007,07,16,08,24,17.80
2007,07,16,08,25,17.80
2007,07,16,08,26,17.80
2007,07,16,08,27,17.80
2007,07,16,08,28,17.80
2007,07,16,08,29,17.80
2007,07,16,08,30,17.80
2007,07,16,08,31,17.80
2007,07,16,08,32,17.80
2007,07,16,08,33,17.80
2007,07,16,08,34,17.80
2007,07,16,08,35,17.80
2007,07,16,08,36,17.80
2007,07,16,08,37,17.80
2007,07,16,08,38,17.80
2007,07,16,08,39,17.70
2007,07,16,08,40,17.70
2007,07,16,08,41,17.70
2007,07,16,08,42,17.70
2007,07,16,08,43,17.60
2007,07,16,08,44,17.50
2007,07,16,08,45,17.50
2007,07,16,08,46,17.40
2007,07,16,08,47,17.40
2007,07,16,08,48,17.40
2007,07,16,08,49,17.40
2007,07,16,08,50,17.40
2007,07,16,08,51,17.40
2007,07,16,08,52,17.40
2007,07,16,08,53,17.50
2007,07,16,08,54,17.60
2007,07,16,08,55,17.70
2007,07,16,08,56,17.80
2007,07,16,08,57,17.80
2007,07,16,08,58,17.90
2007,07,16,08,59,17.90
2007,07,16,09,00,17.90
2007,07,16,09,01,17.80
2007,07,16,09,02,17.80
2007,07,16,09,03,17.80
2007,07,16,09,04,17.80
2007,07,16,09,05,17.80
2007,07,16,09,06,17.80
2007,07,16,09,07,17.80
2007,07,16,09,08,17.80
2007,07,16,09,09,17.80
2007,07,16,09,10,17.80
2007,07,16,09,11,17.80
2007,07,16,09,12,17.80
2007,07,16,09,13,17.90
2007,07,16,09,14,17.90
2007,07,16,09,15,17.90
2007,07,16,09,16,18.00
2007,07,16,09,17,18.00
2007,07,16,09,18,18.10
2007,07,16,09,19,18.00
2007,07,16,09,20,18.00
2007,07,16,09,21,18.00
2007,07,16,09,22,17.90
2007,07,16,09,23,17.90
2007,07,16,09,24,17.80
2007,07,16,09,25,17.80
2007,07,16,09,26,17.80
2007,07,16,09,27,17.80
2007,07,16,09,28,17.80
2007,07,16,09,29,17.80
2007,07,16,09,30,17.80
2007,07,16,09,31,17.80
2007,07,16,09,32,17.90
2007,07,16,09,33,17.90
2007,07,16,09,34,18.10
2007,07,16,09,35,18.20
2007,07,16,09,36,18.20
2007,07,16,09,37,18.30
2007,07,16,09,38,18.40
2007,07,16,09,39,18.50
2007,07,16,09,40,18.60
2007,07,16,09,41,18.70
2007,07,16,09,42,18.70
2007,07,16,09,43,18.80
2007,07,16,09,44,18.90
2007,07,16,09,45,19.00
2007,07,16,09,46,19.10
2007,07,16,09,47,19.10
2007,07,16,09,48,19.10
2007,07,16,09,49,19.10
2007,07,16,09,50,19.20
2007,07,16,09,51,19.50
2007,07,16,09,52,19.70
2007,07,16,09,53,19.70
2007,07,16,09,54,19.80
2007,07,16,09,55,19.80
2007,07,16,09,56,19.80
2007,07,16,09,57,19.80
2007,07,16,09,58,19.90
2007,07,16,09,59,19.90
2007,07,16,10,00,19.90
2007,07,16,10,01,19.90
2007,07,16,10,02,19.90
2007,07,16,10,03,19.90
2007,07,16,10,04,19.90
2007,07,16,10,05,19.90
2007,07,16,10,06,20.00
2007,07,16,10,07,20.10
2007,07,16,10,08,20.10
2007,07,16,10,09,20.20
2007,07,16,10,10,20.20
2007,07,16,10,11,20.10
2007,07,16,10,12,20.10
2007,07,16,10,13,20.10
2007,07,16,10,14,20.20
2007,07,16,10,15,20.20
2007,07,16,10,16,20.30
2007,07,16,10,17,20.30
2007,07,16,10,18,20.20
2007,07,16,10,19,20.30
2007,07,16,10,20,20.30
2007,07,16,10,21,20.30
2007,07,16,10,22,20.40
2007,07,16,10,23,20.50
2007,07,16,10,24,20.60
2007,07,16,10,25,20.70
2007,07,16,10,26,20.80
2007,07,16,10,27,20.80
2007,07,16,10,28,20.90
2007,07,16,10,29,21.00
2007,07,16,10,30,21.10
2007,07,16,10,31,21.30
2007,07,16,10,32,21.40
2007,07,16,10,33,21.50
2007,07,16,10,34,21.50
2007,07,16,10,35,21.60
2007,07,16,10,36,21.80
2007,07,16,10,37,21.80
2007,07,16,10,38,21.90
2007,07,16,10,39,21.90
2007,07,16,10,40,21.90
2007,07,16,10,41,21.80
2007,07,16,10,42,21.80
2007,07,16,10,43,21.80
2007,07,16,10,44,21.80
2007,07,16,10,45,21.80
2007,07,16,10,46,21.80
2007,07,16,10,47,21.80
2007,07,16,10,48,21.80
2007,07,16,10,49,21.90
2007,07,16,10,50,21.90
2007,07,16,10,51,22.00
2007,07,16,10,52,22.00
2007,07,16,10,53,22.10
2007,07,16,10,54,22.10
2007,07,16,10,55,22.10
2007,07,16,10,56,22.00
2007,07,16,10,57,22.00
2007,07,16,10,58,21.90
2007,07,16,10,59,21.90
2007,07,16,11,00,21.80
2007,07,16,11,01,21.70
2007,07,16,11,02,21.60
2007,07,16,11,03,21.50
2007,07,16,11,04,21.30
2007,07,16,11,05,21.20
2007,07,16,11,06,21.10
2007,07,16,11,07,21.10
2007,07,16,11,08,21.00
2007,07,16,11,09,20.90
2007,07,16,11,10,20.90
2007,07,16,11,11,20.90
2007,07,16,11,12,20.90
2007,07,16,11,13,21.00
2007,07,16,11,14,21.10
2007,07,16,11,15,21.10
2007,07,16,11,16,21.00
2007,07,16,11,17,20.90
2007,07,16,11,18,20.90
2007,07,16,11,19,20.90
2007,07,16,11,20,20.90
2007,07,16,11,21,21.00
2007,07,16,11,22,21.00
2007,07,16,11,23,21.00
2007,07,16,11,24,21.00
2007,07,16,11,25,21.10
2007,07,16,11,26,21.00
2007,07,16,11,27,21.10
2007,07,16,11,28,21.10
2007,07,16,11,29,21.10
2007,07,16,11,30,21.10
2007,07,16,11,31,21.10
2007,07,16,11,32,21.10
2007,07,16,11,33,21.10
2007,07,16,11,34,21.00
2007,07,16,11,35,20.90
2007,07,16,11,36,20.80
2007,07,16,11,37,20.80
2007,07,16,11,38,20.70
2007,07,16,11,39,20.70
2007,07,16,11,40,20.80
2007,07,16,11,41,20.80
2007,07,16,11,42,20.80
2007,07,16,11,43,21.00
2007,07,16,11,44,21.10
2007,07,16,11,45,21.30
2007,07,16,11,46,21.30
2007,07,16,11,47,21.30
2007,07,16,11,48,21.30
2007,07,16,11,49,21.30
2007,07,16,11,50,21.30
2007,07,16,11,51,21.30
2007,07,16,11,52,21.40
2007,07,16,11,53,21.50
2007,07,16,11,54,21.70
2007,07,16,11,55,21.80
2007,07,16,11,56,22.00
2007,07,16,11,57,22.00
2007,07,16,11,58,21.90
2007,07,16,11,59,21.80
2007,07,16,12,00,21.80
2007,07,16,12,01,21.80
2007,07,16,12,02,21.80
2007,07,16,12,03,21.90
2007,07,16,12,04,21.90
2007,07,16,12,05,21.90
2007,07,16,12,06,21.90
2007,07,16,12,07,21.90
2007,07,16,12,08,21.80
2007,07,16,12,09,21.90
2007,07,16,12,10,22.00
2007,07,16,12,11,22.10
2007,07,16,12,12,21.90
2007,07,16,12,13,21.80
2007,07,16,12,14,21.80
2007,07,16,12,15,21.80
2007,07,16,12,16,21.60
2007,07,16,12,17,21.50
2007,07,16,12,18,21.40
2007,07,16,12,19,21.50
2007,07,16,12,20,21.60
2007,07,16,12,21,21.60
2007,07,16,12,22,21.40
2007,07,16,12,23,21.30
2007,07,16,12,24,21.30
2007,07,16,12,25,21.40
2007,07,16,12,26,21.50
2007,07,16,12,27,21.60
2007,07,16,12,28,21.80
2007,07,16,12,29,22.00
2007,07,16,12,30,22.10
2007,07,16,12,31,22.20
2007,07,16,12,32,22.20
2007,07,16,12,33,22.10
2007,07,16,12,34,22.20
2007,07,16,12,35,22.30
2007,07,16,12,36,22.50
2007,07,16,12,37,22.60
2007,07,16,12,38,22.70
2007,07,16,12,39,22.60
2007,07,16,12,40,22.50
2007,07,16,12,41,22.40
2007,07,16,12,42,22.30
2007,07,16,12,43,22.30
2007,07,16,12,44,22.40
2007,07,16,12,45,22.40
2007,07,16,12,46,22.50
2007,07,16,12,47,22.50
2007,07,16,12,48,22.50
2007,07,16,12,49,22.60
2007,07,16,12,50,22.60
2007,07,16,12,51,22.70
2007,07,16,12,52,22.80
2007,07,16,12,53,22.80
2007,07,16,12,54,22.80
2007,07,16,12,55,22.80
2007,07,16,12,56,22.90
2007,07,16,12,57,22.90
2007,07,16,12,58,23.00
2007,07,16,12,59,23.10
2007,07,16,13,00,23.10
2007,07,16,13,01,23.10
2007,07,16,13,02,23.20
2007,07,16,13,03,23.10
2007,07,16,13,04,23.10
2007,07,16,13,05,23.10
2007,07,16,13,06,23.10
2007,07,16,13,07,23.10
2007,07,16,13,08,23.10
2007,07,16,13,09,23.20
2007,07,16,13,10,23.10
2007,07,16,13,11,23.00
2007,07,16,13,12,22.90
2007,07,16,13,13,22.90
2007,07,16,13,14,22.80
2007,07,16,13,15,22.70
2007,07,16,13,16,22.70
2007,07,16,13,17,22.70
2007,07,16,13,18,22.70
2007,07,16,13,19,22.70
2007,07,16,13,20,22.60
2007,07,16,13,21,22.60
2007,07,16,13,22,22.60
2007,07,16,13,23,22.70
2007,07,16,13,24,22.70
2007,07,16,13,25,22.70
2007,07,16,13,26,22.80
2007,07,16,13,27,22.80
2007,07,16,13,28,22.80
2007,07,16,13,29,22.80
2007,07,16,13,30,22.90
2007,07,16,13,31,22.90
2007,07,16,13,32,23.00
2007,07,16,13,33,22.90
2007,07,16,13,34,22.70
2007,07,16,13,35,22.70
2007,07,16,13,36,22.50
2007,07,16,13,37,22.50
2007,07,16,13,38,22.40
2007,07,16,13,39,22.30
2007,07,16,13,40,22.20
2007,07,16,13,41,22.10
2007,07,16,13,42,22.00
2007,07,16,13,43,21.90
2007,07,16,13,44,21.70
2007,07,16,13,45,21.50
2007,07,16,13,46,21.30
2007,07,16,13,47,21.40
2007,07,16,13,48,21.50
2007,07,16,13,49,21.60
2007,07,16,13,50,21.60
2007,07,16,13,51,21.60
2007,07,16,13,52,21.70
2007,07,16,13,53,21.80
2007,07,16,13,54,21.80
2007,07,16,13,55,21.80
2007,07,16,13,56,21.60
2007,07,16,13,57,21.50
2007,07,16,13,58,21.40
2007,07,16,13,59,21.40
2007,07,16,14,00,21.40
2007,07,16,14,01,21.40
2007,07,16,14,02,21.40
2007,07,16,14,03,21.40
2007,07,16,14,04,21.40
2007,07,16,14,05,21.40
2007,07,16,14,06,21.30
2007,07,16,14,07,21.30
2007,07,16,14,08,21.20
2007,07,16,14,09,21.20
2007,07,16,14,10,21.10
2007,07,16,14,11,21.10
2007,07,16,14,12,21.10
2007,07,16,14,13,21.10
2007,07,16,14,14,21.20
2007,07,16,14,15,21.40
2007,07,16,14,16,21.60
2007,07,16,14,17,21.70
2007,07,16,14,18,21.70
2007,07,16,14,19,21.80
2007,07,16,14,20,21.80
2007,07,16,14,21,21.80
2007,07,16,14,22,22.00
2007,07,16,14,23,22.10
2007,07,16,14,24,22.20
2007,07,16,14,25,22.30
2007,07,16,14,26,22.30
2007,07,16,14,27,22.30
2007,07,16,14,28,22.10
2007,07,16,14,29,21.90
2007,07,16,14,30,21.70
2007,07,16,14,31,21.50
2007,07,16,14,32,21.30
2007,07,16,14,33,21.20
2007,07,16,14,34,21.20
2007,07,16,14,35,21.10
2007,07,16,14,36,21.10
2007,07,16,14,37,21.00
2007,07,16,14,38,20.90
2007,07,16,14,39,21.00
2007,07,16,14,40,21.10
2007,07,16,14,41,21.20
2007,07,16,14,42,21.20
2007,07,16,14,43,21.20
2007,07,16,14,44,21.30
2007,07,16,14,45,21.20
2007,07,16,14,46,21.00
2007,07,16,14,47,20.90
2007,07,16,14,48,20.80
2007,07,16,14,49,20.80
2007,07,16,14,50,20.80
2007,07,16,14,51,20.90
2007,07,16,14,52,21.00
2007,07,16,14,53,21.10
2007,07,16,14,54,21.20
2007,07,16,14,55,21.30
2007,07,16,14,56,21.50
2007,07,16,14,57,21.50
2007,07,16,14,58,21.50
2007,07,16,14,59,21.50
2007,07,16,15,00,21.60
2007,07,16,15,01,21.50
2007,07,16,15,02,21.50
2007,07,16,15,03,21.40
2007,07,16,15,04,21.40
2007,07,16,15,05,21.30
2007,07,16,15,06,21.10
2007,07,16,15,07,21.10
2007,07,16,15,08,21.00
2007,07,16,15,09,20.90
2007,07,16,15,10,20.90
2007,07,16,15,11,20.70
2007,07,16,15,12,20.70
2007,07,16,15,13,20.60
2007,07,16,15,14,20.50
2007,07,16,15,15,20.50
2007,07,16,15,16,20.60
2007,07,16,15,17,20.70
2007,07,16,15,18,20.70
2007,07,16,15,19,20.80
2007,07,16,15,20,20.80
2007,07,16,15,21,20.80
2007,07,16,15,22,20.80
2007,07,16,15,23,20.90
2007,07,16,15,24,21.00
2007,07,16,15,25,21.10
2007,07,16,15,26,21.00
2007,07,16,15,27,21.10
2007,07,16,15,28,21.00
2007,07,16,15,29,21.00
2007,07,16,15,30,21.10
2007,07,16,15,31,21.40
2007,07,16,15,32,21.40
2007,07,16,15,33,21.60
2007,07,16,15,34,21.70
2007,07,16,15,35,21.70
2007,07,16,15,36,21.80
2007,07,16,15,37,22.00
2007,07,16,15,38,22.10
2007,07,16,15,39,22.20
2007,07,16,15,40,22.20
2007,07,16,15,41,22.20
2007,07,16,15,42,22.20
2007,07,16,15,43,22.20
2007,07,16,15,44,22.30
2007,07,16,15,45,22.30
2007,07,16,15,46,22.40
2007,07,16,15,47,22.40
2007,07,16,15,48,22.40
2007,07,16,15,49,22.40
2007,07,16,15,50,22.30
2007,07,16,15,51,22.20
2007,07,16,15,52,22.20
2007,07,16,15,53,22.30
2007,07,16,15,54,22.30
2007,07,16,15,55,22.30
2007,07,16,15,56,22.20
2007,07,16,15,57,22.20
2007,07,16,15,58,22.20
2007,07,16,15,59,22.20
2007,07,16,16,00,22.30
2007,07,16,16,01,22.30
2007,07,16,16,02,22.40
2007,07,16,16,03,22.40
2007,07,16,16,04,22.50
2007,07,16,16,05,22.60
2007,07,16,16,06,22.80
2007,07,16,16,07,22.90
2007,07,16,16,08,23.10
2007,07,16,16,09,23.20
2007,07,16,16,10,23.10
2007,07,16,16,11,23.00
2007,07,16,16,12,23.00
2007,07,16,16,13,23.00
2007,07,16,16,14,23.00
2007,07,16,16,15,22.90
2007,07,16,16,16,22.90
2007,07,16,16,17,23.00
2007,07,16,16,18,23.20
2007,07,16,16,19,23.30
2007,07,16,16,20,23.40
2007,07,16,16,21,23.60
2007,07,16,16,22,23.60
2007,07,16,16,23,23.60
2007,07,16,16,24,23.70
2007,07,16,16,25,23.70
2007,07,16,16,26,23.80
2007,07,16,16,27,23.90
2007,07,16,16,28,23.90
2007,07,16,16,29,23.70
2007,07,16,16,30,23.50
2007,07,16,16,31,23.30
2007,07,16,16,32,23.20
2007,07,16,16,33,23.20
2007,07,16,16,34,23.20
2007,07,16,16,35,23.20
2007,07,16,16,36,23.20
2007,07,16,16,37,23.10
2007,07,16,16,38,22.90
2007,07,16,16,39,22.90
2007,07,16,16,40,22.80
2007,07,16,16,41,22.80
2007,07,16,16,42,22.70
2007,07,16,16,43,22.70
2007,07,16,16,44,22.60
2007,07,16,16,45,22.40
2007,07,16,16,46,22.30
2007,07,16,16,47,22.10
2007,07,16,16,48,22.10
2007,07,16,16,49,22.10
2007,07,16,16,50,22.10
2007,07,16,16,51,22.10
2007,07,16,16,52,22.00
2007,07,16,16,53,22.00
2007,07,16,16,54,21.80
2007,07,16,16,55,21.80
2007,07,16,16,56,21.90
2007,07,16,16,57,21.90
2007,07,16,16,58,22.00
2007,07,16,16,59,22.00
2007,07,16,17,00,22.00
2007,07,16,17,01,22.00
2007,07,16,17,02,21.90
2007,07,16,17,03,21.90
2007,07,16,17,04,21.90
2007,07,16,17,05,22.00
2007,07,16,17,06,22.10
2007,07,16,17,07,22.20
2007,07,16,17,08,22.10
2007,07,16,17,09,22.10
2007,07,16,17,10,22.10
2007,07,16,17,11,22.00
2007,07,16,17,12,21.90
2007,07,16,17,13,21.80
2007,07,16,17,14,21.80
2007,07,16,17,15,21.80
2007,07,16,17,16,21.70
2007,07,16,17,17,21.70
2007,07,16,17,18,21.60
2007,07,16,17,19,21.60